User: anonymous   Login
Location: Unspecified
(0.0000°N, 0.0000°E)
Time: 04:41:42
(UTC+01:00)
Language:

Cosmos 1538 Rocket - Orbit

View from above orbital plane
View from above orbital plane
View from above satellite
View from above satellite

Ground track
Ground track

The orbit data is extracted from the following two-line orbital elements,

1 14760U 84019B   17020.53482709 -.00000036  00000-0 -31738-5 0  9996
2 14760  74.0416  32.7069 0029221 287.8069 188.5347 14.35808578722393
Epoch (UTC): 20 January 2017 12:50:09
Eccentricity: 0.0029221
inclination: 74.0416°
perigee height: 751 km
apogee height: 793 km
right ascension of ascending node: 32.7069°
argument of perigee: 287.8069°
revolutions per day: 14.35808578
mean anomaly at epoch: 188.5347°
orbit number at epoch: 72239

The dashed part of the orbit path shows where the satellite is in the earth's shadow,  

DLR